GW6133 Weather Reports


time (UTC)temp
C
wind
direction
speed
KPH
gust
KPH
rain 1hr
cm
rain 24hr
cm
rain mn
cm
humidity
%
barometer
mb
20260507153117 14 146 3.2 9.7 0.00 0.03 0.03 44 1007.3
20260507152613 14 111 4.8 6.4 0.00 0.03 0.03 47 1007.4
20260507152109 14 96 1.6 6.4 0.00 0.03 0.03 50 1007.6
20260507151606 14 73 1.6 4.8 0.00 0.03 0.03 52 1007.5
20260507151103 13 101 1.6 3.2 0.00 0.03 0.03 52 1007.5
20260507150600 14 245 3.2 4.8 0.00 0.03 0.03 52 1007.5
20260507150056 14 155 3.2 9.7 0.00 0.03 0.03 52 1007.4
20260507145551 14 167 3.2 4.8 0.00 0.03 0.03 52 1007.4
20260507145050 15 167 1.6 4.8 0.00 0.03 0.03 52 1007.5
20260507144546 14 257 0.0 4.8 0.00 0.03 0.03 56 1007.7
20260507144044 13 200 3.2 9.7 0.00 0.03 0.03 54 1007.7
20260507143540 14 196 3.2 4.8 0.00 0.03 0.03 55 1007.6
20260507143038 13 184 1.6 4.8 0.00 0.03 0.03 58 1007.7
20260507142533 13 128 0.0 4.8 0.00 0.03 0.03 59 1007.8
20260507142030 13 145 1.6 11.3 0.00 0.03 0.03 58 1007.6
20260507141526 14 186 3.2 6.4 0.00 0.03 0.03 58 1007.7
20260507141023 14 167 4.8 9.7 0.00 0.03 0.03 56 1007.6
20260507140520 14 52 3.2 3.2 0.00 0.03 0.03 57 1007.5
20260507140018 14 148 6.4 9.7 0.00 0.03 0.03 56 1007.5
20260507135514 14 357 1.6 4.8 0.00 0.03 0.03 56 1007.5
20260507135011 14 150 0.0 4.8 0.00 0.03 0.03 56 1007.6
20260507134508 13 28 1.6 4.8 0.00 0.03 0.03 58 1007.5
20260507134003 13 28 3.2 9.7 0.00 0.03 0.03 59 1007.6
20260507133459 13 65 0.0 1.6 0.00 0.03 0.03 62 1007.5
20260507132958 13 134 0.0 1.6 0.00 0.03 0.03 63 1007.6
20260507132454 13 340 1.6 3.2 0.00 0.03 0.03 62 1007.7
20260507131951 13 222 1.6 4.8 0.00 0.03 0.03 63 1007.7
20260507131448 13 133 1.6 3.2 0.00 0.03 0.03 63 1007.9
20260507130944 12 42 0.0 1.6 0.00 0.03 0.03 63 1007.8
20260507130442 12 56 3.2 6.4 0.00 0.03 0.03 63 1008.1
20260507125940 12 69 3.2 6.4 0.00 0.03 0.03 63 1008.0
20260507125438 12 236 1.6 3.2 0.00 0.03 0.03 64 1007.9
20260507124935 12 57 3.2 9.7 0.00 0.03 0.03 65 1008.0
20260507124431 12 47 1.6 4.8 0.00 0.03 0.03 64 1008.2
20260507123930 12 207 0.0 6.4 0.00 0.03 0.03 67 1007.9
20260507123427 12 195 1.6 3.2 0.00 0.03 0.03 70 1008.0
20260507122923 11 358 0.0 3.2 0.00 0.03 0.03 70 1008.2
20260507122418 11 32 1.6 6.4 0.00 0.03 0.03 71 1008.1
20260507121915 11 71 0.0 9.7 0.00 0.03 0.03 71 1008.2
20260507121410 11 154 1.6 3.2 0.00 0.03 0.03 75 1008.3
20260507120907 11 64 0.0 3.2 0.00 0.03 0.03 75 1008.2
20260507120403 10 113 1.6 1.6 0.00 0.03 0.03 79 1008.3
20260507115900 10 132 0.0 0.0 0.00 0.03 0.03 80 1008.3
20260507115356 10 332 0.0 1.6 0.00 0.03 0.03 80 1008.1
20260507114851 9 42 0.0 3.2 0.00 0.03 0.03 81 1008.0
20260507114349 9 52 0.0 1.6 0.00 0.03 0.03 81 1008.0
20260507113846 9 42 0.0 0.0 0.00 0.03 0.03 82 1008.3
20260507113343 9 51 0.0 1.6 0.00 0.03 0.03 81 1008.3
20260507112840 9 74 0.0 0.0 0.00 0.03 0.03 81 1008.2
20260507112337 9 61 0.0 1.6 0.00 0.03 0.03 81 1008.0
20260507111836 9 45 0.0 1.6 0.00 0.03 0.03 81 1008.0
20260507111332 9 52 0.0 0.0 0.00 0.03 0.03 82 1007.9
20260507110828 9 122 0.0 1.6 0.00 0.03 0.03 82 1008.0
20260507110324 9 136 0.0 0.0 0.00 0.03 0.03 83 1008.1
20260507105821 9 53 0.0 0.0 0.00 0.03 0.03 83 1008.1
20260507105318 9 96 0.0 0.0 0.00 0.03 0.03 84 1007.9
20260507104815 9 58 0.0 0.0 0.00 0.03 0.03 83 1007.6
20260507104311 9 45 0.0 0.0 0.00 0.03 0.03 85 1007.6
20260507103807 9 44 0.0 0.0 0.00 0.03 0.03 84 1007.5
20260507103303 9 56 0.0 0.0 0.00 0.03 0.03 84 1007.3
20260507102800 8 32 0.0 3.2 0.00 0.03 0.03 84 1007.3
20260507102257 8 45 0.0 1.6 0.00 0.03 0.03 84 1007.4
20260507101753 8 56 0.0 1.6 0.00 0.03 0.03 85 1007.1
20260507101248 8 79 0.0 1.6 0.00 0.03 0.03 84 1007.4
20260507100745 8 44 0.0 3.2 0.00 0.03 0.03 84 1007.2
20260507100244 9 114 0.0 0.0 0.00 0.03 0.03 85 1007.4
20260507095741 9 147 0.0 0.0 0.00 0.03 0.03 84 1007.3
20260507095237 9 59 1.6 4.8 0.00 0.03 0.03 84 1007.2
20260507094735 9 14 0.0 0.0 0.00 0.03 0.03 85 1007.4
20260507094231 9 49 1.6 1.6 0.00 0.03 0.03 83 1007.5
20260507093728 9 49 0.0 1.6 0.00 0.03 0.03 84 1007.6
20260507093227 9 77 0.0 0.0 0.00 0.03 0.03 85 1007.7
20260507092725 9 143 1.6 1.6 0.00 0.03 0.03 86 1007.6
20260507092220 9 177 0.0 3.2 0.00 0.03 0.03 86 1007.5
20260507091717 9 135 0.0 1.6 0.00 0.03 0.03 87 1007.5
20260507091213 9 75 0.0 1.6 0.00 0.03 0.03 86 1007.6
20260507090708 9 33 1.6 1.6 0.00 0.03 0.03 88 1007.6
20260507090206 9 47 0.0 1.6 0.00 0.03 0.03 88 1007.4
20260507085703 9 116 1.6 3.2 0.00 0.03 0.03 87 1007.8
20260507085159 9 97 0.0 1.6 0.00 0.03 0.03 88 1007.4
20260507084656 9 54 0.0 1.6 0.00 0.03 0.03 87 1007.5
20260507084153 9 94 0.0 0.0 0.00 0.03 0.03 87 1007.5
20260507083650 9 199 1.6 3.2 0.00 0.03 0.03 88 1007.8
20260507083147 9 89 0.0 1.6 0.00 0.03 0.03 87 1007.2
20260507082643 9 144 0.0 1.6 0.00 0.03 0.03 87 1007.2
20260507082139 9 207 1.6 3.2 0.13 0.03 0.03 87 1007.3
20260507081636 9 100 0.0 0.0 0.13 0.03 0.03 87 1007.3
20260507081132 10 142 0.0 1.6 0.00 0.00 0.00 87 1007.5
20260507080629 10 110 0.0 0.0 0.00 0.00 0.00 86 1007.1
20260507080125 10 357 0.0 1.6 0.00 0.00 0.00 84 1007.0
20260507075625 10 56 0.0 1.6 0.00 0.00 0.00 83 1006.7
20260507075122 10 76 0.0 3.2 0.00 0.00 0.00 82 1007.2
20260507074619 10 105 0.0 1.6 0.00 0.00 0.00 81 1007.3
20260507074117 10 162 3.2 3.2 0.00 0.00 0.00 82 1007.3
20260507073613 10 150 0.0 1.6 0.00 0.00 0.00 82 1007.4
20260507073109 10 190 1.6 4.8 0.00 0.00 0.00 83 1007.5
20260507072607 10 65 0.0 3.2 0.00 0.00 0.00 83 1007.0
20260507072104 10 11 1.6 1.6 0.00 0.00 0.00 83 1006.9
20260507071601 10 309 0.0 3.2 0.00 0.00 0.00 82 1006.9
20260507071057 10 186 0.0 3.2 0.00 0.00 0.00 83 1006.6
20260507070555 11 31 3.2 4.8 0.00 0.00 0.00 81 1006.4
20260507070052 11 352 1.6 3.2 0.00 0.00 0.00 82 1006.4
20260507065548 11 125 0.0 6.4 0.00 0.00 0.00 82 1007.0
20260507065045 11 31 0.0 1.6 0.00 0.00 0.00 85 1006.9
20260507064543 11 304 0.0 0.0 0.00 0.00 0.00 87 1006.4
20260507064042 11 131 0.0 0.0 0.00 0.00 0.00 87 1006.3
20260507063538 11 54 0.0 0.0 0.00 0.00 0.00 87 1006.5
20260507063036 11 142 0.0 1.6 0.00 0.00 0.00 87 1006.6
20260507062532 11 85 0.0 0.0 0.00 0.00 0.00 87 1006.5
20260507062030 11 293 0.0 1.6 0.00 0.00 0.00 86 1006.3
20260507061527 11 50 0.0 1.6 0.00 0.00 0.00 86 1006.3
20260507061025 11 13 0.0 0.0 0.00 0.00 0.00 86 1006.5
20260507060523 11 50 1.6 3.2 0.00 0.00 0.00 86 1006.5
20260507060020 11 133 0.0 1.6 0.00 0.00 0.00 85 1006.4
20260507055519 11 48 0.0 0.0 0.00 0.00 0.00 85 1006.5
20260507055016 11 16 0.0 4.8 0.00 0.00 0.00 85 1006.4
20260507054512 11 70 0.0 1.6 0.00 0.00 0.00 85 1006.6
20260507054009 11 30 0.0 1.6 0.00 0.00 0.00 84 1007.1
20260507053507 11 54 4.8 4.8 0.00 0.00 0.00 84 1007.1
20260507053006 11 141 0.0 3.2 0.00 0.00 0.00 84 1007.0
20260507052503 11 55 1.6 3.2 0.00 0.00 0.00 85 1007.2
20260507051959 11 59 1.6 3.2 0.00 0.00 0.00 86 1007.0
20260507051457 11 164 0.0 1.6 0.00 0.00 0.00 88 1006.6
20260507050954 11 130 0.0 3.2 0.00 0.00 0.00 88 1006.9
20260507050450 11 160 0.0 3.2 0.00 0.00 0.00 89 1007.3
20260507045947 11 156 0.0 1.6 0.00 0.00 0.00 90 1007.1
20260507045444 11 196 0.0 1.6 0.00 0.00 0.00 89 1007.0
20260507044941 12 77 0.0 1.6 0.00 0.00 0.00 88 1006.7
20260507044438 12 93 0.0 0.0 0.00 0.00 0.00 89 1006.5
20260507043934 12 101 1.6 1.6 0.00 0.00 0.00 88 1006.7
20260507043430 12 152 1.6 3.2 0.00 0.00 0.00 88 1006.9
20260507042926 12 223 1.6 3.2 0.00 0.00 0.00 90 1007.0
20260507042423 12 70 0.0 1.6 0.00 0.00 0.00 89 1006.6
20260507041919 12 91 3.2 4.8 0.00 0.00 0.00 90 1006.5
20260507041416 12 111 0.0 3.2 0.00 0.00 0.00 92 1006.7
20260507040913 12 54 1.6 1.6 0.00 0.00 0.00 93 1006.9
20260507040409 13 151 0.0 0.0 0.00 0.00 0.00 92 1007.0
20260507035905 13 172 0.0 1.6 0.18 0.33 0.33 92 1006.7
20260507035401 13 156 1.6 1.6 0.30 0.33 0.33 91 1006.7
20260507034858 13 205 0.0 1.6 0.13 0.30 0.30 89 1006.5
20260507034355 13 95 1.6 4.8 0.00 0.28 0.28 87 1006.5
20260507033853 13 170 0.0 4.8 0.00 0.28 0.28 86 1006.3
20260507033351 13 151 1.6 3.2 0.00 0.28 0.28 86 1006.1
20260507032848 14 135 1.6 3.2 0.00 0.28 0.28 85 1006.0
20260507032344 14 35 4.8 6.4 0.00 0.28 0.28 85 1006.1
20260507031840 14 158 0.0 4.8 0.00 0.28 0.28 85 1005.9
20260507031337 14 38 0.0 4.8 0.00 0.28 0.28 88 1005.9
20260507030834 15 204 1.6 4.8 0.00 0.28 0.28 90 1005.6
20260507030332 15 43 1.6 6.4 0.00 0.28 0.28 92 1005.7
20260507025828 15 181 1.6 3.2 0.00 0.28 0.28 95 1005.6
20260507025326 15 127 0.0 0.0 0.00 0.28 0.28 96 1005.8
20260507024823 15 199 0.0 1.6 0.00 0.28 0.28 96 1005.8
20260507024320 15 206 0.0 1.6 0.00 0.28 0.28 96 1005.6
20260507023816 15 206 3.2 4.8 0.00 0.28 0.28 96 1005.4
20260507023313 15 171 0.0 0.0 0.00 0.28 0.28 96 1005.5
20260507022810 15 171 0.0 3.2 0.00 0.28 0.28 95 1005.5
20260507022306 15 132 0.0 3.2 0.00 0.28 0.28 95 1005.6
20260507021803 15 182 1.6 3.2 0.00 0.28 0.28 95 1005.4
20260507021259 15 191 1.6 3.2 0.00 0.28 0.28 95 1005.2
20260507020757 15 200 1.6 3.2 0.00 0.28 0.28 95 1005.1
20260507020253 15 188 0.0 1.6 0.00 0.28 0.28 95 1005.1
20260507015751 15 216 0.0 0.0 0.00 0.28 0.28 95 1005.2
20260507015248 15 193 0.0 3.2 0.00 0.28 0.28 95 1005.2
20260507014744 15 208 0.0 1.6 0.00 0.28 0.28 95 1005.2
20260507014241 15 206 1.6 4.8 0.00 0.28 0.28 95 1005.3
20260507013737 15 189 1.6 4.8 0.00 0.28 0.28 95 1005.2
20260507013235 15 213 1.6 1.6 0.00 0.28 0.28 95 1005.1
20260507012732 15 205 1.6 3.2 0.00 0.28 0.28 95 1005.2
20260507012227 15 156 0.0 1.6 0.00 0.28 0.28 95 1005.2
20260507011725 15 184 0.0 3.2 0.00 0.28 0.28 95 1005.3
20260507011222 15 169 0.0 3.2 0.00 0.28 0.28 95 1005.4
20260507010721 15 194 0.0 1.6 0.00 0.28 0.28 95 1005.2
20260507010217 15 216 0.0 1.6 0.00 0.28 0.28 95 1005.4
20260507005715 15 204 0.0 3.2 0.00 0.28 0.28 95 1005.3
20260507005211 15 190 1.6 3.2 0.00 0.28 0.28 95 1005.1
20260507004708 15 185 1.6 3.2 0.00 0.28 0.28 95 1005.1
20260507004206 15 200 1.6 1.6 0.00 0.28 0.28 95 1005.1
20260507003702 15 170 1.6 4.8 0.00 0.28 0.28 95 1005.2
20260507003157 15 244 0.0 1.6 0.00 0.28 0.28 95 1005.1
20260507002653 15 309 0.0 4.8 0.00 0.28 0.28 95 1005.1
20260507002149 15 202 0.0 4.8 0.00 0.28 0.28 95 1005.0
20260507001646 15 197 1.6 3.2 0.00 0.28 0.28 95 1005.0
20260507001144 15 219 0.0 1.6 0.00 0.28 0.28 96 1005.2
20260507000640 15 183 1.6 1.6 0.00 0.28 0.28 96 1005.0
20260507000135 15 125 0.0 3.2 0.00 0.28 0.28 96 1005.0
20260506235633 15 166 1.6 3.2 0.00 0.28 0.28 96 1004.9
20260506235133 15 225 3.2 3.2 0.00 0.28 0.28 96 1005.0
20260506234631 15 234 0.0 3.2 0.00 0.28 0.28 96 1004.8
20260506234128 15 252 1.6 6.4 0.00 0.28 0.28 96 1004.8
20260506233625 15 173 0.0 3.2 0.00 0.28 0.28 96 1004.9
20260506233122 15 127 0.0 3.2 0.00 0.28 0.28 96 1004.8
20260506232617 15 214 0.0 1.6 0.00 0.28 0.28 96 1004.9
20260506232113 15 240 1.6 3.2 0.18 0.28 0.28 96 1004.8
20260506231611 15 211 1.6 4.8 0.18 0.28 0.28 96 1004.7
20260506231109 15 174 1.6 3.2 0.18 0.25 0.25 96 1005.0
20260506230605 15 206 1.6 3.2 0.30 0.25 0.25 95 1005.0
20260506225559 15 202 3.2 3.2 0.00 0.20 0.20 95 1005.0
20260506225055 15 224 0.0 3.2 0.18 0.20 0.20 95 1005.1
20260506224552 15 192 3.2 6.4 0.18 0.20 0.20 94 1005.2
20260506224049 15 176 0.0 9.7 0.13 0.18 0.18 94 1005.4
20260506223545 15 206 1.6 4.8 0.13 0.18 0.18 94 1005.2
20260506223041 15 198 1.6 4.8 0.13 0.18 0.18 94 1005.2
20260506222538 15 225 3.2 4.8 0.00 0.15 0.15 94 1005.1
20260506222034 15 267 3.2 4.8 0.00 0.15 0.15 94 1005.1
20260506221532 15 208 3.2 4.8 0.00 0.15 0.15 93 1005.2
20260506221030 15 204 4.8 6.4 0.00 0.15 0.15 93 1005.2
20260506220526 15 218 1.6 6.4 0.00 0.15 0.15 93 1005.3
20260506220021 15 214 6.4 9.7 0.00 0.15 0.15 93 1005.1
20260506215519 15 186 1.6 6.4 0.18 0.15 0.15 93 1005.2
20260506215014 16 19 1.6 4.8 0.18 0.15 0.15 93 1005.2
20260506214511 16 353 1.6 3.2 0.00 0.13 0.13 93 1005.5
20260506214008 16 199 3.2 4.8 0.00 0.13 0.13 92 1005.3
20260506213507 16 189 4.8 16.1 0.00 0.13 0.13 91 1005.3
20260506213003 16 263 3.2 6.4 0.00 0.13 0.13 91 1005.2
20260506212500 16 212 3.2 9.7 0.00 0.13 0.13 91 1005.1
20260506211954 16 183 3.2 4.8 0.00 0.13 0.13 92 1005.4
20260506211451 16 72 0.0 3.2 0.00 0.13 0.13 92 1005.4
20260506210948 16 160 1.6 4.8 0.13 0.13 0.13 92 1005.4
20260506210444 16 137 4.8 6.4 0.13 0.13 0.13 91 1005.7
20260506205942 16 206 4.8 6.4 0.00 0.10 0.10 91 1005.6
20260506205438 16 211 0.0 9.7 0.00 0.10 0.10 92 1005.6
20260506204934 16 182 4.8 9.7 0.18 0.10 0.10 92 1005.9
20260506204432 16 147 3.2 11.3 0.18 0.10 0.10 91 1005.8
20260506203929 16 177 4.8 6.4 0.00 0.08 0.08 91 1005.9
20260506203426 16 216 3.2 6.4 0.00 0.08 0.08 91 1006.0
20260506202923 16 128 4.8 11.3 0.00 0.08 0.08 90 1005.8
20260506202420 16 336 3.2 6.4 0.13 0.08 0.08 90 1005.9
20260506201916 16 223 1.6 6.4 0.00 0.05 0.05 89 1006.0
20260506201414 17 60 1.6 4.8 0.00 0.05 0.05 88 1006.0
20260506200911 17 172 3.2 3.2 0.00 0.05 0.05 88 1006.0
20260506200406 17 193 3.2 4.8 0.00 0.05 0.05 86 1006.1
20260506195903 17 182 1.6 3.2 0.00 0.05 0.05 85 1006.0
20260506195400 17 215 1.6 6.4 0.00 0.05 0.05 85 1005.9
20260506194857 17 183 4.8 6.4 0.00 0.05 0.05 85 1006.0
20260506194354 17 195 1.6 4.8 0.00 0.05 0.05 85 1006.0
20260506193851 17 64 1.6 3.2 0.00 0.05 0.05 85 1005.9
20260506193348 17 340 0.0 9.7 0.00 0.05 0.05 85 1006.1
20260506192844 17 196 4.8 12.9 0.00 0.05 0.05 85 1006.2
20260506192341 17 190 3.2 4.8 0.00 0.05 0.05 86 1005.9
20260506191838 17 200 1.6 6.4 0.00 0.05 0.05 86 1006.0
20260506191335 17 216 3.2 4.8 0.00 0.05 0.05 87 1005.8
20260506190832 17 242 1.6 4.8 0.18 0.05 0.05 87 1005.7
20260506190328 17 147 3.2 3.2 0.18 0.05 0.05 87 1005.9
20260506185825 17 201 0.0 3.2 0.00 0.03 0.03 87 1006.1
20260506185322 17 197 1.6 3.2 0.00 0.03 0.03 86 1006.1
20260506184819 17 198 3.2 4.8 0.13 0.03 0.03 84 1006.0
20260506184316 17 138 3.2 4.8 0.13 0.03 0.03 84 1006.2
20260506183813 18 200 1.6 4.8 0.00 0.00 0.00 84 1006.3
20260506183308 18 194 4.8 4.8 0.00 0.00 0.00 81 1006.3
20260506182806 18 173 4.8 4.8 0.00 0.00 0.00 79 1006.4
20260506182306 18 139 3.2 6.4 0.00 0.00 0.00 78 1006.6
20260506181801 20 167 3.2 4.8 0.00 0.00 0.00 75 1006.4
20260506181258 20 181 6.4 9.7 0.00 0.00 0.00 67 1006.5
20260506180755 21 162 3.2 12.9 0.00 0.00 0.00 64 1006.5
20260506180251 21 184 4.8 6.4 0.00 0.00 0.00 63 1006.5
20260506175747 21 197 9.7 12.9 0.00 0.00 0.00 60 1006.5
20260506175244 21 199 1.6 12.9 0.00 0.00 0.00 61 1006.5
20260506174742 21 205 3.2 11.3 0.00 0.00 0.00 58 1006.3
20260506174239 21 168 6.4 16.1 0.00 0.00 0.00 59 1006.4
20260506173737 21 167 6.4 12.9 0.00 0.00 0.00 60 1006.4
20260506173233 22 206 4.8 9.7 0.00 0.00 0.00 56 1006.4
20260506172730 22 345 1.6 14.5 0.00 0.00 0.00 53 1006.2
20260506172226 22 139 8.0 12.9 0.00 0.00 0.00 53 1006.0
20260506171724 22 164 6.4 9.7 0.00 0.00 0.00 53 1006.2
20260506171222 23 196 4.8 11.3 0.00 0.00 0.00 52 1006.0
20260506170719 23 266 6.4 11.3 0.00 0.00 0.00 51 1006.1
20260506170215 23 146 4.8 12.9 0.00 0.00 0.00 52 1006.5
20260506165714 23 202 1.6 4.8 0.00 0.00 0.00 53 1006.3
20260506165210 23 217 8.0 11.3 0.00 0.00 0.00 52 1006.6
20260506164708 22 190 4.8 9.7 0.00 0.00 0.00 54 1006.5
20260506164205 22 138 6.4 11.3 0.00 0.00 0.00 54 1006.7
20260506163701 22 204 9.7 14.5 0.00 0.00 0.00 54 1006.7
20260506163156 22 184 3.2 12.9 0.00 0.00 0.00 55 1007.0
20260506162652 22 192 6.4 11.3 0.00 0.00 0.00 57 1006.7
20260506162150 22 190 4.8 11.3 0.00 0.00 0.00 57 1006.9
20260506161647 22 227 6.4 6.4 0.00 0.00 0.00 57 1007.1
20260506161144 22 229 3.2 9.7 0.00 0.00 0.00 58 1007.4
20260506160642 22 177 4.8 12.9 0.00 0.00 0.00 58 1007.5
20260506160138 21 215 1.6 9.7 0.00 0.00 0.00 59 1007.5
20260506155637 21 158 4.8 9.7 0.00 0.00 0.00 59 1007.6
20260506155134 21 220 1.6 6.4 0.00 0.00 0.00 61 1008.2